Regional Weather Roundup
Issued by NWS

Home | Current Version | Previous Version | Text Only | Print | Product List | Glossary On
Versions: 1 2 3 4 5 6 7 8 9 10 11 12 13 14 15 16 17 18 19 20 21 22 23 24 25 26 27 28 29 30 31 32 33 34 35 36 37 38 39 40 41 42 43 44 45 46 47 48 49 50
000
ASUS44 KBMX 300810
RWRAL

ALABAMA REGIONAL WEATHER ROUNDUP
NATIONAL WEATHER SERVICE BIRMINGHAM AL
300 AM CDT THU MAR 30 2017

NOTE: "FAIR" INDICATES FEW OR NO CLOUDS BELOW 12,000 FEET
WITH NO SIGNIFICANT WEATHER AND/OR OBSTRUCTIONS TO VISIBILITY.

THE REMARK "TC" DENOTES TEMPERATURE IN DEGREES CELSIUS.

ALZ001>011-014-016>018-020-300900-
NORTH ALABAMA

CITY           SKY/WX    TMP DP  RH WIND       PRES   REMARKS
MUSCLE SHOALS  CLOUDY    70  55  59 S12       29.85F
HUNTSVILLE     CLOUDY    67  59  75 S8        29.89S
DECATUR        CLOUDY    64  58  80 S8        29.88F
HALEYVILLE     FAIR      65  57  75 S7        29.90F
GADSDEN        CLOUDY    66  57  72 CALM      29.93R
$$

ALZ012-013-022-023-030>036-040>044-300900-
WEST CENTRAL ALABAMA

CITY           SKY/WX    TMP DP  RH WIND       PRES   REMARKS
TUSCALOOSA     CLOUDY    67  60  78 S9        29.89F
$$

ALZ015-024>027-033>036-040>044-300900-
CENTRAL ALABAMA

CITY           SKY/WX    TMP DP  RH WIND       PRES   REMARKS
BIRMINGHAM     CLOUDY    67  59  75 S7        29.94S
MONTGOMERY     MOCLDY    62  56  80 SE5       29.94S
SHELBY CO ARPT CLOUDY    66  61  84 S6        29.94R
MAXWELL AFB    MOCLDY    63  58  86 SE5       29.92F
GREENVILLE     FAIR      61  58  90 SE3       29.93S
$$

ALZ019-021-028-029-037-038-045>048-300900-
EAST CENTRAL ALABAMA

CITY           SKY/WX    TMP DP  RH WIND       PRES   REMARKS
ANNISTON       CLOUDY    64  58  80 SW5       29.94R
ALEXANDER CITY CLOUDY    59  56  89 CALM      29.96R
AUBURN         CLOUDY    63  55  75 S3        29.97S
$$

ALZ051>064-300900-
SOUTHWEST ALABAMA

CITY           SKY/WX    TMP DP  RH WIND       PRES   REMARKS
MOBILE         CLOUDY    68  65  90 S5        29.91F
BROOKLEY FIELD CLOUDY    73  69  87 S10       29.92F
EVERGREEN      CLOUDY    65  64  97 SW6       29.93F
$$

ALZ049-050-065>069-300900-
SOUTHEAST ALABAMA

CITY           SKY/WX    TMP DP  RH WIND       PRES   REMARKS
DOTHAN         CLEAR     56  54  93 CALM      29.98R
OZARK          PTCLDY    59  55  86 CALM      29.94R
TROY           PTCLDY    57  56  96 CALM      29.95S
EUFAULA        FAIR      57  54  89 CALM      29.94S
$$



USA.gov is the U.S. government's official web portal to all federal, state and local government web resources and services.